Regional Weather Roundup
Issued by NWS Sterling, VA

Home | Current Version | Previous Version | Text Only | Print | Product List | Glossary On
Versions: 1 2 3 4 5 6 7 8 9 10 11 12 13 14 15 16 17 18 19 20 21 22 23 24 25 26 27 28 29 30 31 32 33 34 35 36 37 38 39 40 41 42 43 44 45 46 47 48 49 50
000
ASUS41 KLWX 220110
RWRLWX

REGIONAL WEATHER ROUNDUP
NATIONAL WEATHER SERVICE BALTIMORE MD/WASHINGTON DC
900 PM EDT TUE OCT 21 2014

Note: "FAIR" indicates few or no clouds below 12,000 feet
with no significant weather and/or obstructions to visibility.
 TC=TEMPERATURE CELSIUS

 * =Non NWS site. Station does not report precipitation (e.g. rain,
    snow, etc.), thunder, or fog.

DCZ001-MDZ009-015-VAZ040>042-051-053>054-220200-
WASHINGTON METRO

CITY           SKY/WX    TMP DP  RH WIND       PRES   REMARKS
WASHINGTON NAT CLOUDY    58  50  75 NW8       29.90R
DULLES         LGT RAIN  53  50  89 NW3       29.91R
ANDREWS AFB    CLOUDY    55  54  94 NW9       29.88S
FT BELVOIR     DRIZZLE   56  52  87 W5        29.91R
QUANTICO       LGT RAIN  56  52  86 N9        29.91R
COLLEGE PARK*  CLOUDY    55  54  94 CALM      29.89R
LEESBURG*      LGT RAIN  54  54 100 CALM      29.92R
MANASSAS*      LGT RAIN  54  54 100 N7        29.91R
GAITHERSBURG*  CLOUDY    54  46  76 CALM      29.93R

$$

MDZ006>007-011-014-220200-
BALTIMORE METRO

CITY           SKY/WX    TMP DP  RH WIND       PRES   REMARKS
BWI AIRPORT    LGT RAIN  55  52  89 N7        29.88R
MD SCIENCE CTR   N/A     56  52  86 MISG      29.87F
MARTIN STATE   LGT RAIN  57  55  94 W10       29.89R
ANNAPOLIS      LGT RAIN  56  53  90 W5        29.88R
FORT MEADE*    CLOUDY    54  50  87 NW5       29.91R

$$

MDZ012-015-019>023-220200-
MARYLAND EASTERN SHORE

CITY           SKY/WX    TMP DP  RH WIND       PRES   REMARKS
OCEAN CITY     MOCLDY    54  53  97 CALM      29.84R
SALISBURY      MOCLDY    58  51  78 CALM      29.83R
BAY BRIDGE AP* HVY RAIN  55  54  94 W9        29.88R
CAMBRIDGE*     CLOUDY    59  54  82 NW8G16    29.86R
EASTON*        LGT RAIN  59  57  94 N13       29.90R

$$

MDZ017>025-220200-
SOUTHERN MARYLAND

CITY           SKY/WX    TMP DP  RH WIND       PRES   REMARKS
PATUXENT RIVER CLOUDY    58  54  86 NW14      29.85R
ST INIGOES     CLOUDY    59  50  72 W9        29.85R
LEONARDTOWN*   CLOUDY    55  52  88 W5        29.88R

$$

MDZ003>005-220200-
NORTH CENTRAL MARYLAND

CITY           SKY/WX    TMP DP  RH WIND       PRES   REMARKS
FREDERICK*     CLOUDY    59  48  67 N3        29.92S
HAGERSTOWN APT MOCLDY    51  48  89 NW3       29.91R
WESTMINSTER*   LGT RAIN  52  50  93 N3        29.89S

$$

MDZ501>502-220200-
WESTERN MARYLAND

CITY           SKY/WX    TMP DP  RH WIND       PRES   REMARKS
OAKLAND*       FOG       41 N/A N/A NW8       29.95R VSB 1/4
CUMBERLAND*    MOCLDY    50  50 100 N3        29.98R

$$

VAZ025>031-220200-
SHENANDOAH VALLEY

CITY           SKY/WX    TMP DP  RH WIND       PRES   REMARKS
WINCHESTER*    CLOUDY    54  46  76 NW8       29.92R
FRONT ROYAL*   CLOUDY    50  50 100 CALM      29.92R
LURAY*         CLOUDY    54  46  76 N9        29.93R
NEW MARKET*    CLOUDY    49  48  98 CALM      29.93R
STAUNTON*      CLOUDY    53  48  84 CALM      29.94R
WAYNESBORO*    CLOUDY    52  47  83 N5        29.92R

$$

WVZ021-048>050-054>055-220200-
EASTERN WEST VIRGINIA PANHANDLE

CITY           SKY/WX    TMP DP  RH WIND       PRES   REMARKS
MARTINSBURG    CLOUDY    52  47  83 CALM      29.92R
PETERSBURG*    CLOUDY   N/A N/A N/A CALM      29.96R

$$

VAZ036>039-050-220200-
CENTRAL FOOTHILLS

CITY           SKY/WX    TMP DP  RH WIND       PRES   REMARKS
CHARLOTTESVILL CLOUDY    55  49  80 SE3       29.91R
CULPEPER*      CLOUDY    55  52  88 NW6       29.91S
ORANGE*        CLOUDY    54  52  94 NW3       29.92R
GORDONSVILLE*  CLOUDY    53  51  95 CALM      29.91R
WARRENTON*     LGT RAIN  54  54 100 NW3       29.90R

$$

VAZ055>057-220200-
NORTH AND CENTRAL PIEDMONT

CITY           SKY/WX    TMP DP  RH WIND       PRES   REMARKS
FREDERICKSBRG* DRIZZLE   55  55 100 N3        29.89R
STAFFORD*      LGT RAIN  53  53 100 N8        29.93F

$$

NCZ024-NYZ072-PAZ021-071-VAZ022-071-220200-
OTHER REGIONAL OBSERVATIONS

CITY           SKY/WX    TMP DP  RH WIND       PRES   REMARKS
NEW YORK CITY  RAIN      58  53  84 VRB3      29.93R
PHILADELPHIA   CLOUDY    64  48  56 N7        29.86R
PITTSBURGH     CLOUDY    48  45  89 NW12      30.00R
ROANOKE        CLOUDY    52  39  61 W5        29.99R
RICHMOND       CLOUDY    59  50  72 NW10      29.88R
RALEIGH        MOCLDY    63  39  41 N7G21     29.92R

$$

ANZ530>537-220200-
MARINE OBSERVATIONS

STATION/POSITION TIME  TEMP    WIND        PRES
                       AIR SEA DIR/SP/G
                 (UTC) (F)     (DEG/KT/KT) (MB)
THOMAS PT LIGHT  0100   56 64  300/ 12/ 13 1012.7R
BALT KEY BRIDGE  0100   57     290/ 17/ 20 1011.2R
COVE POINT       0100   59     360/ 17/ 20 1010.6S
LEWISETTA        0100   60 65  290/ 15/ 17 1011.0R
SOLOMONS ISLAND  0100      66                N/A
PINEY POINT      0100          340/ 19/ 20   N/A

$$




USA.gov is the U.S. government's official web portal to all federal, state and local government web resources and services.